Location: Banff
(51.1667°N, 115.5667°W)
Time: 02:24:42
(UTC+00:00)

S-56A Canister/Altair - Pass Details

Date: 16 May 2021
Orbit: 632 x 2500 km, 38.9° (Epoch: 16 June)

Event Time Altitude Azimuth Distance (km) Brightness Sun altitude
Rises 05:54:38 0° 277° (W) 5,970 12.5 -16.1°
Reaches altitude 10° 06:02:57 10° 249° (WSW) 4,564 11.5 -16.6°
Maximum altitude 06:05:55 11° 235° (SW) 4,282 11.2 -16.8°
Drops below altitude 10° 06:08:42 10° 221° (SW) 4,186 11.0 -16.9°
Enters shadow 06:12:03 - 204° (SSW) 4,315 10.9 -17.1°
